(125402) = 2001 VU102

Discovered at Socorro on 2001-11-12 by LINEAR.

Orbit

Orbit type: Main Belt

Note: WebGL enabled browser required.

epoch2024-03-31.0
epoch JD2460400.5
perihelion date2023-07-05.54296
perihelion JD2460131.04296
argument of perihelion (°)101.20722
ascending node (°)37.84734
inclination (°)7.32721
eccentricity0.0617018
perihelion distance (AU)2.1552865
Tisserand w.r.t. Jupiter3.6
ΔV w.r.t. Earth (km/sec)9.4
semimajor axis (AU)2.2970166
mean anomaly (°)76.28641
mean daily motion (°/day)0.28311160
aphelion distance (AU)2.439
period (years)3.48
P-vector [x]-0.75041924
P-vector [y]0.54569599
P-vector [z]0.37294348
Q-vector [x]-0.65631379
Q-vector [y]-0.68199564
Q-vector [z]-0.32269824
absolute magnitude16.61
phase slope0.15
uncertainty0
referenceMPEC 2024-F50
observations used639
oppositions16
arc length (days)8185
first opposition used2001
last opposition used2024
residual rms (arc-secs)0.83
perturbers coarse indicatorM-v
perturbers precise indicator003Ek
first observation date used2001-10-21.0
last observation date used2024-03-19.0
computer nameMPCLINUX
JD of orbit computation2456909.124082
perihelion JD uncertainty (days)1.7435E-04
argument of perihelion uncertainty (°)5.8188E-05
ascending node uncertainty (°)3.3531E-05
inclination uncertainty (°)5.8223E-06
eccentricity uncertainty 3.8569E-08
perihelion distance uncertainty (AU)8.9481E-08
Minimum Orbit Intersection Distances (in AU)
for orbit epoch: 2460400.5, reference: E2024-GD4
Mercury1.79131
Venus1.43956
Earth1.18203
Mars0.51865
Jupiter2.5637
Saturn6.84123
Uranus16.2762
Neptune27.4706

Observations

662 total observations over interval: 2001 10 21.42031 – 2024 03 19.635270
These data are available for download (format description).

Date (UT) J2000 RA J2000 Dec Magn Location Ref
2001 10 21.42031 03 53 42.22 +22 16 26.2 19.7   704 – Lincoln Laboratory ETS, New Mexico MPS 44870
2001 10 21.43693 03 53 41.55 +22 16 27.2 20.4   704 – Lincoln Laboratory ETS, New Mexico MPS 44870
2001 10 21.45352 03 53 40.76 +22 16 29.6 20.1   704 – Lincoln Laboratory ETS, New Mexico MPS 44870
2001 10 21.48674 03 53 39.34 +22 16 32.9 20.0   704 – Lincoln Laboratory ETS, New Mexico MPS 44870
2001 10 26.49621 03 49 51.16 +22 26 27.0 19.9   644 – Palomar Mountain/NEAT MPS 44870
2001 10 26.50739 03 49 50.59 +22 26 28.3 20.0   644 – Palomar Mountain/NEAT MPS 44870
2001 10 26.51751 03 49 50.05 +22 26 29.1 19.8   644 – Palomar Mountain/NEAT MPS 44870
2001 11 12.29047 03 32 27.63 +22 42 03.3 19.5   704 – Lincoln Laboratory ETS, New Mexico MPS 44870
2001 11 12.30520 03 32 26.41 +22 42 03.0 19.9   704 – Lincoln Laboratory ETS, New Mexico MPS 44870
2001 11 12.31995 03 32 25.36 +22 42 03.0 19.8   704 – Lincoln Laboratory ETS, New Mexico MPS 44870
2001 11 12.33467 03 32 24.26 +22 42 03.1 19.9   704 – Lincoln Laboratory ETS, New Mexico MPS 44870
2001 11 12.34939 03 32 23.18 +22 42 03.2 19.6   704 – Lincoln Laboratory ETS, New Mexico MPS 44870
2001 11 19.28494 03 24 06.70 +22 40 30.3 18.8   704 – Lincoln Laboratory ETS, New Mexico MPS 44870
2001 11 19.29960 03 24 05.61 +22 40 29.7 19.4   704 – Lincoln Laboratory ETS, New Mexico MPS 44870
2001 11 19.31427 03 24 04.49 +22 40 29.3 19.3   704 – Lincoln Laboratory ETS, New Mexico MPS 44870
2001 11 19.32894 03 24 03.47 +22 40 28.9 19.7   704 – Lincoln Laboratory ETS, New Mexico MPS 44870
2001 11 19.34361 03 24 02.31 +22 40 27.9 19.5   704 – Lincoln Laboratory ETS, New Mexico MPS 44870
2001 11 24.21755 03 18 18.20 +22 37 09.1 19.4   704 – Lincoln Laboratory ETS, New Mexico MPS 55145
2001 11 24.23263 03 18 17.05 +22 37 08.2 19.8   704 – Lincoln Laboratory ETS, New Mexico MPS 55145
2001 11 24.24841 03 18 16.04 +22 37 08.9 19.5   704 – Lincoln Laboratory ETS, New Mexico MPS 55145
2001 11 24.26292 03 18 14.97 +22 37 06.9 19.1   704 – Lincoln Laboratory ETS, New Mexico MPS 55145
2001 11 24.27743 03 18 13.88 +22 37 04.4 19.8   704 – Lincoln Laboratory ETS, New Mexico MPS 55145
2001 12 10.21513 03 02 19.12 +22 21 12.7 19.5   704 – Lincoln Laboratory ETS, New Mexico MPS 44870
2001 12 10.23069 03 02 18.35 +22 21 11.9 20.0   704 – Lincoln Laboratory ETS, New Mexico MPS 44870
2001 12 10.24603 03 02 17.58 +22 21 11.2 19.9   704 – Lincoln Laboratory ETS, New Mexico MPS 44870
2001 12 10.26129 03 02 16.81 +22 21 10.6 19.9   704 – Lincoln Laboratory ETS, New Mexico MPS 44870
2001 12 17.23978 02 57 34.04 +22 15 49.9 20.1   704 – Lincoln Laboratory ETS, New Mexico MPS 44870
2001 12 17.25510 02 57 33.56 +22 15 48.6 20.0   704 – Lincoln Laboratory ETS, New Mexico MPS 44870
2001 12 17.27076 02 57 32.94 +22 15 47.6 19.8   704 – Lincoln Laboratory ETS, New Mexico MPS 44870
2001 12 17.28650 02 57 32.39 +22 15 46.6 19.9   704 – Lincoln Laboratory ETS, New Mexico MPS 44870
2001 12 20.14313 02 56 06.77 +22 14 29.9 19.7   644 – Palomar Mountain/NEAT MPS 46705
2001 12 20.16289 02 56 06.18 +22 14 29.5 19.9   644 – Palomar Mountain/NEAT MPS 46705
2001 12 20.18390 02 56 05.59 +22 14 29.7 20.3   644 – Palomar Mountain/NEAT MPS 46705
2003 04 29.28174 14 25 26.31 -14 34 40.6 18.9   704 – Lincoln Laboratory ETS, New Mexico MPS 79982
2003 04 29.28777 14 25 25.97 -14 34 40.2 18.8 R 699 – Lowell Observatory-LONEOS MPS 79982
2003 04 29.29365 14 25 25.52 -14 34 41.0 19.0   704 – Lincoln Laboratory ETS, New Mexico MPS 79982
2003 04 29.30525 14 25 24.77 -14 34 38.9   699 – Lowell Observatory-LONEOS MPS 79982
2003 04 29.30549 14 25 24.70 -14 34 38.5 18.8   704 – Lincoln Laboratory ETS, New Mexico MPS 79982
2003 04 29.32266 14 25 23.58 -14 34 38.1   699 – Lowell Observatory-LONEOS MPS 79982
2003 04 29.34009 14 25 22.33 -14 34 36.7   699 – Lowell Observatory-LONEOS MPS 79982
2003 05 01.23459 14 23 17.31 -14 32 19.4 19.5 V 291 – LPL/Spacewatch II MPS 79982
2003 05 01.25851 14 23 15.68 -14 32 17.6 19.6 V 291 – LPL/Spacewatch II MPS 79982
2003 05 01.28224 14 23 14.06 -14 32 15.9 19.5 V 291 – LPL/Spacewatch II MPS 79982
2003 05 06.21504 14 17 53.29 -14 26 09.7 18.9   704 – Lincoln Laboratory ETS, New Mexico MPS 79982
2003 05 06.25201 14 17 50.86 -14 26 08.1 19.0   704 – Lincoln Laboratory ETS, New Mexico MPS 79982
2003 05 06.26447 14 17 49.99 -14 26 06.9 19.0   704 – Lincoln Laboratory ETS, New Mexico MPS 79982
2003 05 10.26406 14 13 41.14 -14 21 25.6 19.8 V 691 – Steward Observatory, Kitt Peak-Spacewatch MPS 79982
2003 05 10.29015 14 13 39.51 -14 21 23.8 19.9 V 691 – Steward Observatory, Kitt Peak-Spacewatch MPS 79982
2003 05 10.31947 14 13 37.67 -14 21 22.0 19.7 V 691 – Steward Observatory, Kitt Peak-Spacewatch MPS 79982
2003 05 22.19460 14 03 06.65 -14 11 49.5 20.3 V 691 – Steward Observatory, Kitt Peak-Spacewatch MPS 79982
2003 05 22.22303 14 03 05.30 -14 11 48.9 20.3 V 691 – Steward Observatory, Kitt Peak-Spacewatch MPS 79982
2003 05 22.25095 14 03 04.00 -14 11 48.1 20.3 V 691 – Steward Observatory, Kitt Peak-Spacewatch MPS 79982
2003 06 05.18500 13 55 33.49 -14 15 50.3 20.6 V 691 – Steward Observatory, Kitt Peak-Spacewatch MPS 79982
2003 06 05.21171 13 55 32.91 -14 15 51.9 20.4 V 691 – Steward Observatory, Kitt Peak-Spacewatch MPS 79982
2003 06 05.23884 13 55 32.32 -14 15 53.6 20.5 V 691 – Steward Observatory, Kitt Peak-Spacewatch MPS 79982
2004 09 07.23742 23 44 54.58 -11 57 45.1 19.9   704 – Lincoln Laboratory ETS, New Mexico MPS 112635
2004 09 07.27213 23 44 52.59 -11 57 55.3 19.9   704 – Lincoln Laboratory ETS, New Mexico MPS 112635
2004 09 07.28350 23 44 51.85 -11 57 59.4 20.2   704 – Lincoln Laboratory ETS, New Mexico MPS 112635
2004 09 10.29647 23 41 50.57 -12 11 31.2 19.9   704 – Lincoln Laboratory ETS, New Mexico MPS 112733
2004 09 10.30770 23 41 49.95 -12 11 34.0 20.4   704 – Lincoln Laboratory ETS, New Mexico MPS 112733
2004 09 10.33016 23 41 48.59 -12 11 39.6 20.1   704 – Lincoln Laboratory ETS, New Mexico MPS 112733
2006 01 24.34483 10 02 35.44 +25 51 41.6 18.8 R 699 – Lowell Observatory-LONEOS MPS 161666
2006 01 24.36769 10 02 34.46 +25 51 50.2   699 – Lowell Observatory-LONEOS MPS 161666
2006 01 24.39055 10 02 33.22 +25 51 59.2   699 – Lowell Observatory-LONEOS MPS 161666
2006 01 24.41339 10 02 31.99 +25 52 07.3   699 – Lowell Observatory-LONEOS MPS 161666
2006 02 03.31563 09 53 04.25 +26 52 41.3 18.8 R 699 – Lowell Observatory-LONEOS MPS 163224
2006 02 03.34487 09 53 02.23 +26 52 51.9   699 – Lowell Observatory-LONEOS MPS 163224
2006 02 03.37407 09 53 00.40 +26 53 01.2   699 – Lowell Observatory-LONEOS MPS 163224
2006 02 03.40330 09 52 58.56 +26 53 11.6   699 – Lowell Observatory-LONEOS MPS 163224
2006 02 04.29078 09 52 01.81 +26 58 02.3 19.4 V 703 – Catalina Sky Survey MPS 162720
2006 02 04.29936 09 52 01.23 +26 58 05.4 19.3 V 703 – Catalina Sky Survey MPS 162720
2006 02 04.30796 09 52 00.69 +26 58 07.3 19.0 V 703 – Catalina Sky Survey MPS 162720
2006 02 04.31652 09 52 00.12 +26 58 10.7 18.9 V 703 – Catalina Sky Survey MPS 162720
2006 02 06.25089 09 49 54.12 +27 08 15.4   699 – Lowell Observatory-LONEOS MPS 255658
2006 02 06.27283 09 49 52.62 +27 08 23.6   699 – Lowell Observatory-LONEOS MPS 255658
2006 02 06.29477 09 49 51.13 +27 08 29.9   699 – Lowell Observatory-LONEOS MPS 255658
2006 02 18.28807 09 36 25.09 +27 53 37.2 18.6 R 699 – Lowell Observatory-LONEOS MPS 163660
2006 02 18.31367 09 36 23.44 +27 53 40.7   699 – Lowell Observatory-LONEOS MPS 163660
2006 02 18.33927 09 36 21.62 +27 53 44.5   699 – Lowell Observatory-LONEOS MPS 163660
2006 02 18.36489 09 36 19.85 +27 53 48.7   699 – Lowell Observatory-LONEOS MPS 163660
2006 02 20.29071 09 34 14.40 +27 57 46.2 19.1   704 – Lincoln Laboratory ETS, New Mexico MPS 163660
2006 02 20.30271 09 34 13.53 +27 57 48.8 19.6   704 – Lincoln Laboratory ETS, New Mexico MPS 163660
2006 02 20.31460 09 34 12.73 +27 57 49.7 19.3   704 – Lincoln Laboratory ETS, New Mexico MPS 163660
2006 02 20.32652 09 34 11.92 +27 57 50.7 19.7   704 – Lincoln Laboratory ETS, New Mexico MPS 163660
2006 02 22.14385 09 32 16.97 +28 00 39.3 18.7 R 699 – Lowell Observatory-LONEOS MPS 163660
2006 02 22.16577 09 32 15.58 +28 00 41.0   699 – Lowell Observatory-LONEOS MPS 163660
